Wind_Speed
32 35 33 25 19 18 19 21 24 25 26 26 23 22 20 19 18 17 17 19 20 18 16 15 15 18 21 19 17 15 14 15 14 12 10 9 8 8 7 5 2 1 0 2 3 2 2 1 2 6 9 10 10 14 18 18 18 18 18 20 21 21 22 22 22 21 20 20 19 18 16 15 13 13 12 11 10 9 9 9 9 9 8 8 8 7
38 37 28 20 20 21 21 22 25 27 28 28 26 23 22 22 19 19 18 16 18 17 14 15 16 15 19 20 18 15 15 17 14 11 9 8 9 9 9 7 4 3 2 1 3 3 2 2 1 5 8 10 12 14 18 19 19 19 19 20 22 22 22 23 23 23 23 22 21 20 18 16 14 13 12 11 10 10 9 9 9 9 8 8 7 7
41 32 20 20 25 26 25 25 25 26 29 29 28 26 24 21 21 24 24 18 17 15 12 14 15 13 17 20 19 16 16 18 16 12 10 10 11 11 11 10 7 4 3 0 2 3 3 2 0 5 9 11 13 15 18 19 18 19 19 20 21 22 23 24 24 24 24 24 23 20 18 16 15 13 12 11 10 10 10 9 9 9 8 8 7 7
36 22 18 26 30 28 27 26 25 27 30 31 31 29 25 20 22 27 26 23 19 16 11 9 10 12 17 21 21 19 20 21 19 16 14 14 13 12 13 12 9 5 3 1 1 1 2 2 1 4 8 11 13 16 18 18 17 18 19 20 21 22 23 24 25 24 24 23 22 20 17 16 14 12 11 11 10 10 10 10 10 9 9 8 7 7
30 20 24 32 31 30 29 28 29 30 31 32 33 30 24 20 20 25 25 24 20 17 13 11 14 19 21 22 21 19 22 24 21 18 17 15 14 14 16 14 10 7 5 3 2 1 1 1 1 2 6 10 13 16 19 18 18 18 19 20 22 23 23 24 25 24 23 22 20 18 16 14 12 11 10 11 10 10 9 10 9 9 9 8 7 7
29 24 31 35 34 33 32 31 30 28 28 31 33 29 24 21 21 25 28 26 23 22 19 17 22 24 21 21 20 20 24 26 23 18 16 15 15 15 16 15 13 10 8 5 4 3 3 1 1 3 6 9 12 16 19 20 20 20 19 20 21 22 22 23 24 23 22 21 19 18 16 15 14 14 14 12 10 9 9 9 9 9 9 8 7 7
32 29 35 38 37 35 34 33 31 29 29 29 28 26 25 25 25 28 30 29 29 27 22 21 23 22 23 23 20 21 25 26 25 20 16 16 17 16 16 16 15 13 10 8 5 5 4 3 2 4 7 10 14 17 19 21 21 20 19 19 19 20 21 22 22 22 22 21 21 20 20 19 18 17 14 11 9 9 9 9 10 9 9 8 8 7
35 33 38 39 38 36 35 34 31 30 31 24 22 27 29 29 28 29 30 31 30 28 27 28 26 25 28 26 20 21 24 26 28 23 18 18 18 17 17 17 16 14 11 10 8 5 4 3 3 4 7 11 14 17 19 20 20 19 18 17 17 18 19 20 21 22 22 22 23 22 21 20 18 14 11 9 9 10 10 10 10 10 9 8 8 7
36 36 37 37 38 38 35 31 28 30 30 22 21 29 32 32 30 29 32 33 30 30 34 34 31 32 35 29 22 24 25 27 27 22 19 20 19 18 17 17 17 15 14 12 10 8 5 4 3 4 7 10 13 16 19 20 20 20 19 17 16 16 18 19 21 22 23 24 24 23 22 19 16 13 11 10 10 11 11 10 9 8 8 8 8 7
40 38 38 39 38 37 35 30 29 32 30 23 24 30 33 35 34 33 36 36 33 35 38 36 34 35 36 31 27 27 26 25 25 21 19 19 18 18 16 16 17 17 17 15 12 10 7 5 5 4 6 8 11 15 18 20 21 20 19 16 15 15 17 18 20 22 23 23 23 22 20 18 15 13 12 12 11 10 10 9 8 8 7 8 7 6
44 42 42 43 38 36 36 33 32 33 28 25 28 31 35 38 38 39 40 39 38 41 40 38 36 34 35 32 29 29 25 19 20 21 20 18 18 18 17 17 17 17 18 17 15 12 9 7 6 4 5 8 11 14 16 19 20 19 18 16 15 14 16 17 19 20 21 22 21 20 19 16 14 13 13 12 11 10 9 9 8 7 7 7 6 5
50 48 47 44 40 38 38 36 35 34 31 29 31 33 37 41 42 45 46 45 48 47 40 38 37 35 37 34 31 29 23 17 19 20 19 18 18 17 16 17 16 17 19 18 16 14 11 9 6 5 6 9 11 12 15 17 19 19 18 17 15 14 15 16 18 19 20 20 20 19 17 15 14 13 13 13 12 10 9 9 8 7 7 6 4 3
53 51 50 46 42 40 40 39 38 38 36 34 34 36 40 44 46 49 51 52 55 51 41 37 37 37 38 35 33 31 24 20 21 18 15 16 17 16 15 15 15 17 20 19 17 14 11 9 8 7 8 10 12 13 14 17 19 19 19 18 16 14 14 16 18 19 19 19 19 18 16 14 14 13 13 13 12 11 10 9 9 8 7 6 5 3
53 51 52 49 45 43 43 42 42 42 41 38 38 40 42 46 49 52 53 56 57 52 43 38 39 41 39 32 31 30 26 23 22 19 15 14 15 15 13 12 14 18 21 19 16 14 12 10 9 8 8 9 12 14 15 17 19 20 20 18 17 16 16 15 17 19 19 19 19 18 16 15 14 14 13 13 12 12 11 10 9 8 7 6 5 4
54 53 52 51 49 47 45 44 43 41 41 39 38 37 39 41 45 48 49 52 53 50 44 42 43 44 40 31 25 25 26 24 22 21 18 15 15 14 11 10 14 20 21 19 17 15 14 13 11 10 9 8 12 15 16 17 18 20 20 19 19 18 17 16 17 19 20 21 20 18 17 15 15 15 14 13 12 12 12 11 10 9 8 7 6 5
53 53 51 50 51 48 45 43 41 40 40 39 36 37 37 36 37 41 44 46 47 47 45 44 46 45 39 33 27 24 26 27 25 23 22 19 17 16 15 13 15 20 20 18 17 16 14 14 13 11 10 9 11 14 16 16 17 19 20 20 20 20 20 20 20 20 21 22 21 19 18 17 16 16 14 13 12 12 13 12 11 10 9 8 7 6
52 53 51 50 50 48 45 42 41 41 41 39 39 39 37 33 33 36 39 40 43 46 44 43 47 47 41 36 33 29 29 29 27 25 26 24 19 17 17 14 16 21 20 18 18 16 14 14 13 12 12 11 11 13 14 16 16 18 20 21 21 21 22 22 21 22 23 23 21 20 19 18 18 16 15 14 14 13 13 12 11 10 10 9 9 8
56 57 54 52 50 49 46 41 41 42 41 40 39 38 35 32 33 34 35 37 41 45 44 42 46 48 43 36 33 32 31 30 28 27 28 28 24 20 18 14 16 20 19 18 18 16 15 14 14 14 14 12 12 13 14 15 16 18 20 21 21 20 20 21 22 23 23 22 21 20 19 19 19 17 16 15 14 13 13 12 11 10 10 10 9 8
60 60 58 55 53 49 46 43 43 44 43 40 38 37 35 35 37 37 37 38 40 42 41 40 43 45 42 36 33 33 32 29 29 30 31 31 30 26 20 17 16 18 18 18 17 16 14 14 15 16 16 14 14 14 14 14 15 17 20 20 20 19 20 21 22 23 23 22 22 21 21 21 20 19 18 16 15 14 14 13 12 12 11 9 8 8
60 62 58 57 54 48 45 46 47 47 45 43 41 40 38 37 38 37 37 37 37 38 37 36 38 39 36 32 30 31 31 30 31 33 35 34 32 30 23 19 17 17 19 19 18 16 15 15 16 18 18 16 15 15 13 12 14 16 19 20 19 19 19 19 20 21 22 22 22 22 22 21 20 19 18 17 17 16 16 15 13 12 11 9 9 8
59 63 59 56 55 50 46 48 51 48 46 47 47 45 43 42 40 37 36 36 36 36 35 34 35 32 28 25 25 25 27 28 29 31 34 34 33 32 24 16 15 17 20 20 18 17 16 15 18 20 21 19 18 17 14 12 13 16 18 19 19 19 18 17 18 19 20 21 22 22 22 21 20 19 18 17 17 18 17 15 14 13 12 10 9 8
61 64 61 56 56 55 51 49 48 46 45 45 47 46 45 43 41 39 40 38 36 36 34 32 30 26 22 21 20 19 21 24 25 25 26 28 31 31 22 14 15 18 20 21 19 18 16 16 20 23 23 21 19 16 14 13 14 15 16 17 18 19 18 17 18 19 20 20 20 21 21 21 20 19 18 17 17 17 16 15 14 13 12 11 10 9
62 64 61 55 54 56 55 52 47 42 42 42 42 42 42 43 42 41 40 37 35 34 31 28 26 21 19 21 20 18 19 23 23 22 23 25 26 25 19 16 17 18 19 20 20 18 17 17 20 23 22 21 18 16 16 16 15 15 16 17 18 19 19 18 19 20 21 21 20 20 20 20 20 19 18 18 17 16 15 14 14 13 12 11 10 9
62 62 60 55 52 54 55 55 49 41 40 42 42 41 42 43 41 40 37 33 31 32 28 27 27 21 17 20 20 18 19 23 24 23 24 24 22 20 19 18 19 19 19 20 20 18 18 19 21 23 22 20 17 17 18 17 16 16 16 17 18 19 20 20 20 21 20 21 21 21 21 20 20 19 19 18 17 16 14 14 13 12 11 10 9 8
62 62 61 55 50 50 52 53 50 43 40 42 43 42 42 41 40 38 36 33 32 31 28 28 28 22 18 20 19 17 19 23 25 24 23 22 19 17 17 18 19 18 19 21 21 20 20 22 23 22 20 18 18 18 18 18 17 16 14 16 18 19 20 20 20 21 21 21 21 20 20 19 19 19 18 18 16 15 14 13 11 11 10 9 9 9
63 63 63 56 51 51 51 51 50 45 42 41 41 42 42 42 41 40 38 37 36 33 30 31 27 21 21 21 17 15 18 22 24 23 22 20 18 16 16 17 18 17 18 20 21 23 24 23 22 21 18 18 19 19 19 20 19 16 14 15 16 18 19 20 20 22 22 22 21 20 20 19 18 18 18 18 17 15 14 12 11 10 10 10 10 10
64 64 63 60 55 53 53 53 51 48 45 41 39 40 42 43 43 40 38 39 37 32 31 30 24 20 21 18 13 16 19 20 21 22 20 18 16 15 15 16 17 17 17 18 20 24 26 25 23 21 20 19 20 20 21 21 19 16 14 14 15 17 19 20 21 22 22 21 21 21 21 20 20 20 19 18 17 16 14 13 12 11 11 11 11 10
65 65 65 63 60 56 55 53 51 50 48 45 41 38 41 44 43 41 40 38 35 33 32 28 24 25 22 14 12 17 20 19 20 19 18 16 14 14 15 15 16 17 18 19 19 19 24 28 27 25 23 21 21 22 22 21 19 16 14 13 15 17 19 20 20 21 21 21 20 20 20 21 21 20 19 17 15 14 13 13 12 12 12 11 11 11
65 66 67 66 61 57 55 52 50 50 49 49 46 39 39 44 45 42 40 36 33 34 31 26 26 28 25 17 15 18 19 19 20 19 18 17 14 14 15 16 16 16 18 19 17 16 23 29 31 29 26 24 23 24 23 20 18 16 14 14 16 18 19 20 20 20 20 19 20 20 20 20 19 17 16 14 13 13 12 12 13 13 12 12 12 12
66 66 68 67 62 57 54 51 52 52 50 49 45 36 34 42 46 42 37 34 32 31 28 25 25 29 29 24 22 22 22 23 23 23 23 21 18 16 16 16 17 16 17 18 16 18 25 29 31 31 28 25 25 25 23 20 17 15 13 12 14 17 19 20 20 20 19 18 19 19 20 19 17 15 14 13 13 13 13 13 13 13 12 13 13 13
67 67 67 67 63 58 54 51 52 52 51 48 42 34 30 36 45 45 38 33 30 28 26 25 23 27 33 32 30 30 31 29 28 27 26 24 21 18 16 17 19 16 17 18 17 21 26 28 29 30 27 24 24 24 23 20 17 15 14 12 13 16 17 17 18 18 18 17 18 18 19 19 17 15 14 13 13 14 14 14 14 14 13 13 13 12
67 67 67 67 64 59 54 51 49 48 48 46 43 40 34 32 39 46 42 35 30 25 23 25 23 23 30 35 36 38 38 35 33 31 30 29 25 19 16 17 19 18 18 20 20 23 26 26 27 27 24 21 21 21 22 20 18 17 14 13 12 13 14 15 15 15 16 16 16 17 17 18 18 16 14 13 13 14 15 15 15 15 14 13 12 13
67 66 67 69 66 60 55 51 47 45 47 48 47 48 45 37 36 44 46 39 33 27 23 26 26 23 26 31 36 41 40 37 36 34 33 32 28 22 18 17 18 18 18 21 22 24 26 26 26 26 25 23 21 21 21 21 19 18 16 15 14 13 13 13 13 14 14 13 13 13 14 15 15 14 13 12 13 14 14 15 16 15 14 14 14 14
68 67 68 71 70 62 56 52 48 46 50 53 51 50 51 44 37 44 52 44 35 31 26 26 27 27 28 30 34 38 38 35 35 34 34 31 27 22 20 19 20 21 21 23 24 25 26 28 28 28 27 26 24 24 24 24 22 22 21 20 18 16 15 14 14 14 14 13 12 12 12 13 13 12 12 13 13 13 14 15 16 17 17 16 16 15
69 67 68 73 73 64 56 54 51 50 51 54 54 52 52 47 40 45 52 45 36 33 29 28 31 33 32 32 33 35 36 36 34 33 31 28 24 22 22 21 22 23 24 24 26 27 28 30 31 30 29 28 27 27 27 27 26 26 25 23 22 20 19 18 18 17 16 14 14 13 13 13 13 14 14 15 15 14 14 15 17 18 19 18 17 16
70 69 69 74 76 67 58 55 53 52 53 55 56 55 52 46 42 45 49 47 41 37 33 34 38 39 37 35 34 34 36 36 33 30 28 25 23 24 23 22 21 21 21 22 23 25 27 29 30 31 30 29 29 29 29 30 29 29 27 26 25 24 23 22 20 19 18 16 15 15 14 14 14 15 15 15 16 16 15 16 17 19 21 20 19 19
70 69 69 74 77 71 62 57 52 50 54 57 57 55 52 48 47 48 50 48 45 40 38 39 41 42 40 37 35 34 35 34 31 28 26 24 24 24 23 22 20 19 19 19 19 19 20 22 23 25 26 27 28 29 30 31 31 31 30 30 28 26 25 23 22 20 19 18 16 16 15 15 15 15 15 16 16 16 16 18 19 20 22 22 21 20
71 70 70 75 78 73 65 59 53 50 54 57 55 54 52 51 52 53 53 52 49 45 43 42 41 40 39 38 38 37 35 33 32 30 28 26 26 25 24 23 21 19 18 17 18 18 18 17 18 19 21 23 25 26 27 27 28 29 29 28 27 26 25 23 21 20 20 19 18 17 17 17 16 16 16 16 15 15 17 20 21 22 23 24 23 22
70 71 71 75 78 75 68 61 55 53 54 54 52 53 53 54 56 55 54 54 52 50 48 44 43 42 41 40 40 40 38 36 34 34 32 31 30 28 26 25 24 21 19 17 17 17 17 17 17 18 19 20 21 22 23 23 24 24 24 24 24 23 22 21 20 20 20 19 19 18 18 18 18 17 16 16 16 15 17 20 23 24 24 24 24 23
69 72 71 74 78 76 70 64 57 54 53 51 52 54 55 57 57 55 54 55 55 55 53 50 49 50 49 47 47 47 44 41 39 38 36 34 34 32 29 28 27 25 22 19 18 17 17 18 18 18 18 19 20 20 21 21 22 22 23 23 23 22 21 20 21 21 21 21 20 19 20 20 20 19 17 17 17 16 16 18 22 25 24 24 24 24
65 73 72 75 79 76 72 69 61 55 52 51 54 57 58 59 58 56 56 58 58 58 57 55 54 53 52 52 53 52 50 46 43 42 40 38 36 34 32 30 29 28 26 23 21 20 20 20 19 19 19 19 20 21 22 23 23 24 24 24 24 23 23 23 23 23 22 22 21 20 20 21 21 21 19 19 19 17 16 16 19 22 23 23 24 25
58 72 73 75 79 77 73 72 66 58 52 52 55 60 62 61 60 61 60 60 62 63 61 58 56 55 54 54 53 52 51 48 45 43 42 40 39 37 34 32 32 31 29 26 25 24 23 22 21 20 20 20 22 24 25 25 25 25 25 25 25 25 25 25 25 25 24 23 23 22 21 22 23 23 21 20 19 18 17 16 16 19 21 22 24 24
49 66 72 73 78 78 73 72 71 63 55 52 53 60 66 63 61 64 64 59 61 66 64 59 57 55 56 56 53 50 49 47 45 44 43 41 40 38 35 32 31 31 30 29 28 28 26 25 24 22 21 21 23 25 26 26 26 25 25 25 25 26 26 25 25 25 25 25 25 24 24 24 25 25 24 22 21 20 19 18 17 18 19 20 22 22
41 56 69 72 74 76 73 73 73 68 60 54 51 57 67 67 62 66 66 58 58 67 67 62 59 56 56 57 54 52 52 50 47 46 44 43 41 39 36 33 30 30 29 29 30 29 27 26 24 23 22 22 23 24 25 25 26 26 25 25 25 26 26 26 26 27 27 27 27 27 27 27 28 28 27 25 23 22 21 20 20 19 19 20 20 20
35 46 61 68 70 72 74 75 76 73 68 61 51 52 65 69 64 69 69 58 57 68 70 64 62 60 58 58 56 55 56 54 51 49 47 45 44 41 38 36 34 32 31 30 30 30 28 27 26 24 23 23 23 23 23 23 24 25 25 26 26 26 26 26 27 27 28 28 29 29 29 29 30 30 29 29 27 26 24 23 23 22 21 21 20 20
34 39 51 60 64 68 74 77 77 76 75 66 51 48 61 67 64 70 73 59 56 70 75 69 66 64 61 60 57 56 56 55 54 52 49 47 46 44 42 41 39 37 35 34 34 34 32 31 30 27 25 25 24 24 23 23 23 23 24 25 26 26 26 26 27 27 27 28 28 28 29 30 31 32 32 32 32 31 29 27 26 25 24 24 23 22
34 37 43 51 56 64 73 76 77 78 78 71 55 47 57 64 63 69 73 61 55 68 76 74 70 68 66 64 62 58 56 55 54 53 51 49 48 47 45 44 41 39 38 39 40 40 38 36 34 32 30 29 27 26 26 25 24 24 24 24 25 25 26 26 27 27 27 27 27 27 28 29 31 32 33 34 35 34 32 30 29 28 27 27 26 25
30 35 38 44 52 61 71 74 76 80 81 77 64 51 53 62 64 66 69 62 54 60 69 71 71 70 68 67 66 62 58 56 54 54 52 50 49 48 46 44 41 39 39 42 44 44 43 41 39 36 34 33 31 29 28 28 27 26 25 25 25 25 26 26 26 27 26 26 26 26 27 28 29 30 32 33 34 34 33 32 32 30 30 30 30 29
25 31 34 38 46 57 65 68 72 79 82 80 73 59 51 57 63 64 66 64 58 59 62 64 66 69 69 68 67 63 60 57 55 54 53 51 51 50 47 44 40 36 35 39 44 45 44 43 42 40 37 36 35 32 30 29 29 28 27 27 26 26 26 27 27 27 27 27 27 27 27 27 28 29 30 30 31 31 32 32 33 32 32 33 33 33
23 26 31 34 41 51 60 62 66 76 82 81 78 70 58 55 59 62 65 66 64 63 63 61 61 65 68 69 68 64 59 57 55 54 54 54 53 52 49 45 41 37 35 36 39 42 42 42 43 42 40 39 37 36 33 32 31 30 29 29 28 27 27 28 28 28 28 29 28 29 29 29 29 30 30 30 30 30 31 31 32 33 34 34 35 35
23 23 27 33 38 45 55 59 62 72 80 79 77 75 67 59 56 56 60 66 69 69 68 63 59 60 62 63 65 63 60 57 56 56 57 57 56 54 50 45 43 41 38 37 38 39 40 40 41 42 42 41 39 38 37 34 33 32 31 30 30 29 28 29 29 29 29 30 30 30 30 30 30 30 31 31 30 30 31 31 32 33 34 35 36 36
Wind_Direction
237 236 235 234 237 242 242 239 234 231 231 231 228 224 223 223 213 199 201 214 215 215 217 206 207 231 239 233 224 220 208 191 190 196 193 203 220 230 235 235 222 222 296 50 54 46 355 337 192 193 185 179 189 198 195 187 181 179 176 178 184 182 178 177 178 179 178 176 174 173 171 170 170 163 157 155 156 156 150 144 139 136 132 125 116 110
234 234 234 235 236 236 233 232 229 227 229 229 227 222 218 216 204 184 182 204 220 219 214 196 192 224 245 241 233 226 207 191 191 199 200 213 230 239 243 245 236 203 192 50 54 56 34 358 218 196 192 183 181 189 196 193 185 182 178 178 183 183 180 179 179 179 179 179 178 177 176 174 172 167 162 161 162 162 158 152 146 142 138 127 118 111
235 233 230 233 233 232 231 228 225 223 225 227 226 223 217 213 208 195 179 179 207 216 212 203 197 222 250 254 246 234 214 204 206 205 203 211 222 237 250 256 253 220 198 123 57 44 42 17 343 187 191 191 187 186 192 195 189 185 182 179 183 185 183 182 182 181 181 181 181 179 176 174 173 169 166 165 168 168 164 160 153 148 142 132 125 116
240 234 229 232 231 230 231 230 227 221 221 222 222 221 213 205 213 211 188 173 191 204 208 222 223 234 251 258 255 242 225 220 220 213 205 208 214 226 241 255 262 247 230 199 144 38 44 29 346 191 195 195 192 187 188 195 194 189 186 182 184 188 186 185 185 184 184 183 181 178 175 174 172 168 169 172 174 174 170 166 160 153 146 139 132 123
240 226 223 230 229 229 230 229 228 224 220 219 219 218 208 199 211 215 194 175 184 196 201 219 229 233 241 251 256 251 237 229 225 216 208 209 211 216 230 247 259 256 259 248 196 173 91 47 316 212 205 200 194 188 184 190 197 195 192 188 187 190 189 188 189 187 185 184 180 174 171 168 166 168 177 183 182 181 177 170 164 157 151 145 137 128
233 221 223 228 226 225 225 226 227 227 224 221 220 215 204 198 202 206 194 180 183 191 196 212 223 229 239 250 256 256 246 238 232 223 212 210 210 216 230 244 250 252 261 259 218 189 175 152 187 198 200 200 195 190 186 187 194 199 198 195 192 192 193 191 191 189 185 182 176 171 169 169 172 178 185 189 185 181 178 171 167 162 157 150 140 130
225 220 223 227 226 224 223 223 224 226 225 223 220 214 204 199 197 200 198 189 189 191 194 213 224 231 244 253 259 257 250 247 242 233 218 213 214 220 230 237 242 246 252 253 232 199 193 183 179 187 194 199 196 192 191 190 193 200 204 203 199 196 196 194 191 189 186 182 176 175 177 179 183 187 187 187 179 173 174 174 172 170 164 154 141 134
220 220 224 226 227 225 224 223 224 227 228 222 215 210 205 200 196 201 203 197 195 192 193 211 226 235 243 251 260 260 255 252 247 236 225 224 222 222 225 229 235 240 240 240 233 211 203 207 200 188 193 200 199 193 192 193 194 199 206 210 206 201 199 196 191 188 186 183 181 181 184 186 189 188 183 179 177 174 176 180 178 174 168 155 144 141
220 221 226 228 228 227 225 223 224 229 230 219 209 209 205 200 196 200 204 198 196 195 194 205 221 232 240 245 251 256 255 253 247 237 231 233 231 226 224 224 228 233 234 230 226 218 207 220 228 201 193 199 200 195 192 194 197 199 205 211 210 206 203 199 193 189 187 187 187 186 187 189 187 181 175 176 179 180 180 182 180 174 166 155 149 149
218 219 224 227 227 226 225 221 220 226 226 214 209 208 203 200 194 194 201 197 197 204 201 201 210 222 233 236 237 242 245 247 247 242 236 233 230 227 221 220 222 226 232 232 225 221 213 219 234 215 189 190 199 199 195 197 202 203 203 208 211 208 205 202 198 193 191 191 192 191 190 189 183 175 176 179 183 186 182 180 178 171 163 156 156 158
216 215 220 223 222 221 222 219 218 222 220 210 209 207 201 200 194 192 197 196 201 211 207 202 205 213 223 227 229 232 233 240 245 244 242 233 225 222 213 215 221 221 229 235 229 222 218 219 228 219 182 182 195 202 200 201 205 208 207 207 210 210 207 205 203 200 196 194 195 196 194 189 182 179 181 182 185 187 181 176 176 169 164 162 164 164
216 213 216 219 218 217 217 215 214 218 216 209 207 205 201 199 194 193 195 197 206 212 208 205 208 212 217 218 221 226 225 230 238 239 242 236 229 224 210 208 218 221 225 231 230 221 216 217 221 216 191 186 192 198 202 203 206 210 211 211 211 210 208 207 207 206 200 197 197 198 197 192 187 186 186 185 184 184 179 174 175 171 167 167 170 168
217 213 214 215 215 216 215 212 211 213 214 209 206 204 202 199 196 196 196 199 207 210 205 208 215 222 224 217 213 219 217 221 232 235 235 234 231 228 219 210 212 218 221 225 225 215 209 209 211 213 202 193 192 193 199 203 204 209 212 213 212 210 209 208 208 209 205 201 199 199 199 196 195 195 192 188 183 180 178 174 176 178 174 172 174 174
217 214 214 214 213 215 216 212 210 211 212 209 207 206 204 200 199 200 199 201 206 207 204 210 221 231 235 227 214 213 213 215 225 232 228 225 229 230 228 219 207 210 216 219 216 207 205 206 208 217 214 201 196 193 196 201 203 206 210 213 213 211 210 208 208 209 208 206 202 200 200 199 200 202 199 192 184 179 180 179 177 180 182 183 182 185
219 214 213 214 213 213 214 212 210 212 213 212 210 212 212 209 207 208 206 206 209 209 207 214 225 233 238 236 225 216 216 215 218 228 227 217 221 222 214 205 199 205 210 210 208 203 203 207 211 221 222 209 200 195 194 200 204 206 208 209 212 213 210 209 209 208 209 209 206 202 201 200 202 206 203 196 187 180 181 185 183 182 189 195 196 197
221 214 210 215 216 213 214 214 210 211 214 213 212 214 217 217 215 214 214 215 215 215 214 219 229 235 237 238 235 223 218 216 215 224 228 222 218 213 205 194 192 200 203 201 205 205 202 208 216 223 228 217 205 199 196 199 204 208 209 209 211 212 210 209 209 207 208 209 207 203 200 199 201 204 201 196 190 186 185 188 189 189 192 196 201 205
220 212 207 214 217 213 213 214 212 213 214 213 212 215 217 217 217 215 216 219 220 222 223 224 228 232 235 237 237 231 224 222 222 227 235 235 231 221 213 200 184 192 202 206 208 210 208 213 219 223 228 222 206 201 200 200 203 209 212 212 212 213 212 211 210 210 210 207 203 201 199 197 198 198 198 195 191 189 187 188 191 193 193 193 198 206
216 209 205 210 213 212 211 212 212 213 214 214 214 216 216 214 215 216 217 218 221 224 226 226 227 231 235 238 238 236 233 232 233 238 243 243 241 234 225 214 189 185 202 210 205 204 208 214 217 217 222 222 210 204 204 204 205 208 212 213 214 215 215 214 213 213 214 208 200 197 196 194 194 194 195 194 190 185 184 186 190 193 195 194 196 203
211 208 204 205 207 209 210 210 210 210 212 214 216 216 214 215 217 216 217 218 220 223 224 225 228 231 236 239 239 239 240 241 242 245 248 246 245 243 233 223 205 185 191 202 199 201 211 215 214 211 215 220 218 214 209 207 208 207 208 211 214 216 216 216 215 214 215 211 202 196 194 193 193 192 192 189 183 178 179 184 187 190 194 195 197 201
209 208 204 202 203 203 207 209 209 209 209 209 213 214 213 218 222 222 223 223 223 225 225 226 228 229 233 237 239 239 241 244 243 242 245 245 245 247 241 227 214 194 189 197 201 206 215 219 214 209 212 219 223 219 209 207 210 206 205 207 211 217 219 220 218 215 214 212 204 198 195 195 194 193 191 185 179 177 179 182 184 186 187 189 194 197
208 209 204 201 202 198 200 206 207 208 209 208 210 210 209 213 217 220 225 225 225 227 227 228 229 228 230 235 237 236 235 236 234 230 236 241 242 246 244 226 208 196 190 196 203 209 217 221 215 208 209 215 219 214 200 199 206 205 203 204 209 216 220 218 215 213 212 211 206 200 196 195 194 192 190 185 182 182 181 180 180 181 180 180 186 193
206 208 202 200 204 200 197 202 204 208 213 214 214 213 210 212 213 214 219 220 222 227 229 231 234 232 230 231 229 225 223 222 218 214 222 232 236 237 235 216 202 195 191 196 202 208 217 221 215 210 207 212 217 209 195 195 200 199 199 203 208 214 216 212 207 204 204 204 203 199 195 193 191 190 189 187 188 188 184 179 178 177 176 179 186 195
203 206 202 200 206 204 198 199 201 207 216 219 220 219 217 217 216 216 219 218 219 224 227 232 237 233 227 226 220 211 210 210 208 206 212 222 227 226 217 205 204 198 194 198 201 206 217 217 211 208 205 209 212 202 193 195 194 191 194 199 205 209 210 207 201 199 199 196 194 194 192 190 189 190 191 191 193 192 187 181 178 177 180 186 193 203
202 204 202 200 203 205 201 198 198 203 213 218 219 219 219 221 221 222 224 224 223 225 224 227 229 225 223 227 219 204 196 198 200 204 212 220 222 216 206 201 203 202 199 201 201 206 212 207 203 203 202 204 204 199 196 194 188 187 190 194 200 205 207 203 197 195 196 195 193 192 190 190 192 193 194 194 194 192 187 182 180 180 186 193 201 213
200 201 201 197 197 199 197 195 195 196 204 214 217 216 218 222 223 223 223 222 222 222 221 224 225 216 216 228 224 207 194 193 197 202 210 220 221 211 205 203 202 204 204 199 196 198 200 197 197 199 199 199 200 201 199 192 182 179 183 190 197 202 205 202 195 190 191 194 195 193 191 192 192 192 192 193 192 189 187 184 183 185 193 201 209 217
199 198 198 193 190 191 191 191 193 194 197 207 214 215 216 219 221 221 220 220 220 217 214 220 221 210 214 226 222 208 201 198 199 201 206 217 221 213 209 208 205 205 204 197 192 192 193 195 198 198 196 198 201 201 196 185 177 174 180 188 193 198 202 200 194 190 190 194 195 194 192 190 188 188 188 189 189 188 188 188 188 191 198 206 212 216
197 197 196 191 188 190 190 189 192 193 193 198 207 210 212 217 218 218 219 220 219 216 215 216 210 199 207 217 202 194 202 207 206 203 202 210 221 219 213 210 207 200 194 190 189 192 195 200 207 202 196 199 201 195 188 181 175 176 186 194 196 198 201 199 196 193 191 194 197 197 194 189 187 187 187 188 189 189 190 191 191 195 201 205 209 213
196 196 195 190 187 189 189 188 191 195 194 195 200 204 207 212 215 216 218 219 218 217 216 213 200 191 192 191 188 196 205 213 216 210 205 210 223 225 216 210 206 195 187 185 188 195 199 203 208 203 195 197 196 188 185 182 179 182 190 199 202 200 200 199 197 195 193 194 198 200 198 195 193 192 191 191 191 191 192 193 194 199 203 204 206 209
194 196 195 189 186 187 186 186 191 196 197 198 197 197 201 205 210 215 217 217 219 217 215 212 202 192 184 177 190 204 206 211 218 219 216 215 219 222 215 208 204 193 181 177 183 196 196 196 199 198 194 196 192 187 187 186 184 185 188 195 200 198 197 196 195 195 194 194 196 201 202 201 197 195 194 193 194 195 196 197 200 204 204 203 205 210
194 195 194 188 183 182 181 184 191 195 199 201 197 192 194 200 205 213 214 213 218 219 215 212 206 195 187 183 192 206 211 213 216 221 223 219 216 220 217 210 207 194 172 163 170 187 188 188 192 193 194 195 192 190 192 190 185 182 182 187 189 190 191 192 191 190 188 187 193 199 203 201 199 198 199 200 202 204 205 205 207 209 208 207 209 212
194 194 192 186 180 177 178 184 190 194 199 200 196 191 195 199 202 206 210 210 213 215 211 207 205 200 196 193 197 208 214 215 217 224 230 229 225 220 216 212 208 194 168 160 167 177 180 184 189 191 192 193 193 194 194 191 185 182 181 180 177 178 181 182 183 181 176 178 187 195 199 200 200 202 204 207 210 212 212 213 213 213 213 213 214 215
194 194 190 183 177 175 178 184 189 194 198 197 195 195 202 207 203 201 205 206 204 207 206 199 199 206 204 201 205 213 217 217 220 226 233 237 234 227 221 216 209 193 170 164 167 171 177 185 190 190 189 190 192 195 195 193 189 185 183 180 177 179 178 175 177 177 174 178 185 190 194 199 202 205 208 211 214 216 217 216 216 216 216 216 216 216
195 194 189 181 176 175 178 183 186 189 194 194 193 195 200 207 206 200 200 201 195 195 200 195 194 207 211 205 209 217 220 221 223 227 231 235 236 232 227 221 211 198 180 169 167 169 176 183 188 191 191 190 190 192 195 197 195 189 188 187 188 189 184 177 178 179 178 184 188 188 191 197 202 207 211 215 218 219 220 220 218 217 217 216 217 216
196 195 190 182 178 177 179 184 184 182 188 192 191 194 198 201 202 199 196 194 188 188 195 197 196 205 214 211 211 217 221 221 221 223 227 230 230 227 224 219 212 204 193 183 179 178 178 179 183 187 189 190 190 190 192 196 195 193 194 195 195 194 190 184 185 188 189 193 196 198 199 201 203 207 213 219 221 221 221 221 219 218 217 219 218 216
196 195 190 185 182 179 180 185 183 179 183 188 189 193 196 194 195 195 192 187 183 184 192 199 200 203 211 214 214 217 222 225 223 222 225 226 222 217 215 216 213 208 201 193 188 186 184 183 184 186 188 189 191 191 192 192 193 196 198 198 197 196 193 190 191 195 198 200 204 209 211 211 210 212 216 221 224 224 222 220 219 219 219 220 219 216
195 195 191 187 185 182 182 184 182 178 181 183 185 190 193 191 190 190 187 184 180 181 191 201 202 202 208 215 216 218 223 227 227 226 225 222 217 212 210 213 214 211 207 200 194 189 187 186 188 190 190 192 193 193 192 193 195 198 200 200 200 198 196 195 194 197 201 203 207 213 218 221 221 221 224 227 228 229 227 222 220 219 218 219 218 217
193 195 192 189 189 187 184 181 179 179 178 178 181 186 190 190 187 185 186 184 179 180 194 205 205 202 205 209 212 216 222 224 224 225 224 218 214 212 209 210 212 211 209 209 208 204 198 192 191 192 192 194 197 198 196 196 198 200 201 202 201 200 199 197 196 198 202 205 210 216 222 228 231 231 233 234 233 233 230 225 221 219 218 218 218 218
192 195 193 191 193 192 186 179 178 178 175 174 178 183 185 187 185 183 183 183 179 185 198 207 207 203 200 199 200 209 219 219 216 218 221 217 214 212 212 212 213 212 211 213 216 213 206 201 200 199 197 197 199 201 201 201 202 203 203 203 202 202 200 197 198 201 203 206 211 216 223 231 235 238 240 241 239 236 231 226 222 220 219 217 217 218
190 195 194 192 195 196 190 182 179 177 173 171 175 178 180 184 184 181 181 182 184 190 198 204 201 194 191 193 196 203 213 214 212 214 218 218 217 215 215 217 217 216 215 216 217 213 207 207 210 211 208 203 201 201 201 201 201 202 203 204 205 205 202 199 202 206 207 208 211 215 222 229 233 238 244 249 250 246 237 227 222 221 221 218 217 218
187 193 194 194 196 197 194 188 182 178 174 170 171 175 179 182 183 182 183 185 188 191 196 200 197 189 187 192 197 201 207 210 211 215 217 218 220 219 219 220 221 221 218 217 219 218 216 218 220 218 213 208 205 204 204 203 202 202 202 204 206 207 206 207 212 214 212 212 214 215 219 225 230 234 242 250 255 255 247 233 225 223 222 220 218 219
185 192 194 195 197 199 197 193 187 182 178 173 172 176 180 182 182 185 188 189 189 192 195 199 200 197 195 197 200 202 206 208 210 215 219 221 224 226 225 225 225 224 220 216 218 221 222 224 223 218 213 210 207 207 206 205 205 205 206 207 207 207 209 213 217 220 219 219 220 219 219 223 228 232 237 245 253 258 255 244 231 226 225 223 221 222
182 191 194 194 197 200 200 196 191 186 181 176 175 177 180 183 184 187 191 192 190 193 196 199 202 204 203 204 204 205 208 210 210 214 221 224 227 230 229 227 227 225 221 216 215 219 222 222 221 216 211 209 208 209 208 207 206 205 206 208 209 209 211 214 218 220 221 223 224 224 221 222 226 229 234 240 248 256 258 254 241 232 229 227 226 226
177 188 194 195 196 200 202 199 195 192 186 178 176 178 180 184 185 185 191 196 193 193 196 199 202 205 205 207 207 206 207 210 211 213 218 221 225 228 226 225 225 223 221 217 216 218 220 220 219 213 208 207 208 209 210 209 207 207 208 208 208 208 209 212 215 218 219 220 222 222 220 221 224 226 229 235 243 251 256 255 249 242 237 234 232 231
173 181 191 196 197 199 204 202 198 197 192 183 178 178 180 184 185 184 189 197 195 193 197 199 201 204 206 208 209 206 206 210 213 215 217 218 220 223 222 223 224 223 222 221 220 220 221 222 221 215 209 208 209 211 213 212 209 207 207 208 209 209 209 209 211 215 217 217 218 219 218 218 221 223 226 230 236 243 250 254 252 248 244 241 238 237
177 173 183 194 198 200 204 204 201 200 198 191 183 178 179 182 184 184 188 192 190 191 196 200 201 204 206 209 212 210 208 211 214 216 217 217 217 219 219 220 222 222 223 225 224 224 226 227 227 223 216 213 215 216 217 217 214 210 207 207 209 211 211 212 213 215 217 219 219 219 218 217 218 221 225 228 231 235 241 247 250 249 247 246 244 242
187 172 174 186 195 198 202 204 204 204 202 197 189 179 178 182 183 184 188 189 184 186 192 197 200 202 205 209 213 214 212 212 214 216 217 217 217 219 220 219 219 221 224 227 227 228 230 230 230 228 222 219 220 222 223 222 221 218 214 211 210 211 212 213 215 217 219 220 221 221 220 219 218 219 222 227 230 231 232 237 243 246 247 247 245 245
195 183 173 177 187 195 199 203 207 207 204 202 198 186 180 182 183 184 188 189 184 183 189 194 197 200 203 208 212 215 214 214 215 216 217 217 218 220 221 221 222 225 228 228 226 227 230 232 231 228 225 222 221 224 226 225 224 223 221 218 215 214 214 214 216 218 219 220 221 222 222 222 221 220 221 224 228 230 230 231 235 240 244 246 246 245
201 196 185 178 183 192 197 202 207 209 206 205 205 197 185 183 184 186 189 190 187 184 188 194 198 199 201 205 210 214 216 215 215 217 217 217 218 221 223 223 225 230 232 228 225 224 227 230 231 228 225 224 223 224 225 226 226 224 224 224 222 220 219 219 219 220 222 224 225 225 226 227 227 227 228 228 230 232 232 232 233 235 238 243 245 246
210 205 201 189 184 190 196 201 206 209 208 207 209 207 196 187 185 187 189 191 189 187 189 194 198 200 202 204 207 212 214 214 215 217 219 220 220 222 224 224 224 229 232 228 224 223 223 226 229 230 228 227 226 226 226 227 228 227 226 227 226 226 225 224 224 224 226 228 230 231 231 232 232 233 234 235 236 237 236 236 236 235 235 238 241 244
220 213 211 202 190 189 194 200 205 209 210 210 212 213 209 198 190 189 191 191 191 191 192 194 196 198 202 205 207 209 210 211 213 216 220 223 224 224 224 223 222 226 231 230 228 226 224 224 226 230 232 232 230 230 229 229 229 229 229 229 229 230 230 230 229 229 230 232 234 234 234 234 235 235 237 238 239 241 241 241 241 240 239 239 240 242
229 222 217 210 199 194 196 200 204 208 211 213 214 215 216 211 203 196 193 192 192 193 195 198 198 197 201 205 207 208 209 211 214 217 221 226 228 227 224 223 223 225 229 231 230 229 229 227 226 228 232 235 235 234 233 233 232 231 231 231 231 232 233 234 234 234 234 234 235 236 237 237 237 238 239 240 241 242 244 245 245 244 244 244 244 244
Height
5839 5837 5840 5846 5850 5851 5852 5853 5856 5858 5859 5860 5862 5864 5866 5867 5870 5872 5874 5875 5875 5876 5878 5881 5882 5881 5880 5883 5887 5890 5891 5892 5893 5894 5894 5895 5896 5897 5898 5900 5900 5900 5901 5901 5901 5902 5902 5903 5904 5904 5905 5906 5908 5910 5912 5913 5914 5915 5916 5918 5920 5922 5923 5924 5926 5927 5929 5931 5932 5934 5935 5936 5938 5939 5940 5941 5942 5942 5943 5943 5944 5944 5945 5946 5946 5947
5832 5833 5841 5847 5848 5847 5848 5849 5851 5853 5855 5857 5859 5861 5863 5865 5868 5869 5871 5874 5875 5875 5878 5879 5880 5879 5878 5880 5884 5888 5890 5892 5893 5894 5893 5894 5895 5896 5897 5899 5899 5900 5900 5900 5901 5901 5901 5902 5903 5904 5904 5905 5907 5909 5911 5912 5913 5915 5916 5917 5919 5921 5923 5924 5925 5926 5928 5929 5931 5932 5934 5936 5938 5939 5940 5941 5942 5942 5943 5944 5944 5945 5945 5946 5947 5947
5826 5835 5844 5844 5843 5843 5844 5845 5847 5850 5852 5853 5855 5858 5860 5863 5866 5865 5866 5871 5873 5874 5876 5877 5879 5878 5877 5878 5881 5885 5889 5890 5891 5892 5892 5893 5894 5895 5896 5897 5898 5899 5899 5899 5900 5900 5901 5901 5902 5903 5904 5904 5905 5907 5909 5911 5913 5914 5915 5917 5919 5921 5922 5923 5924 5925 5927 5929 5930 5932 5934 5936 5938 5939 5940 5941 5942 5943 5943 5944 5944 5945 5946 5946 5947 5947
5827 5838 5842 5838 5838 5839 5841 5842 5844 5846 5847 5849 5851 5854 5859 5862 5864 5864 5864 5867 5869 5872 5875 5877 5878 5877 5876 5876 5879 5883 5887 5888 5889 5890 5891 5892 5893 5895 5895 5896 5897 5898 5898 5899 5899 5899 5900 5901 5901 5903 5904 5904 5905 5906 5908 5911 5913 5914 5915 5916 5918 5920 5922 5923 5924 5925 5926 5928 5930 5932 5934 5936 5938 5939 5940 5941 5942 5943 5943 5944 5945 5945 5946 5947 5947 5948
5827 5836 5835 5831 5834 5836 5837 5838 5839 5841 5843 5846 5848 5851 5857 5862 5863 5864 5864 5865 5867 5869 5872 5874 5876 5875 5873 5873 5876 5880 5884 5886 5887 5888 5889 5891 5892 5893 5894 5894 5895 5897 5898 5898 5899 5899 5900 5900 5901 5902 5903 5904 5905 5905 5907 5910 5912 5913 5914 5916 5917 5919 5921 5922 5924 5925 5927 5929 5931 5933 5935 5937 5938 5939 5940 5941 5942 5943 5943 5944 5945 5945 5946 5947 5947 5948
5824 5829 5828 5826 5829 5831 5832 5834 5836 5839 5841 5843 5845 5850 5856 5860 5862 5862 5862 5862 5864 5865 5868 5870 5871 5871 5871 5872 5874 5877 5879 5881 5884 5886 5888 5890 5891 5892 5893 5894 5894 5895 5896 5898 5898 5899 5899 5900 5900 5901 5902 5903 5904 5905 5906 5908 5910 5912 5914 5915 5917 5919 5920 5922 5924 5925 5927 5929 5931 5933 5935 5936 5937 5938 5939 5940 5941 5943 5943 5944 5945 5945 5946 5947 5948 5948
5819 5823 5821 5821 5824 5827 5829 5831 5833 5836 5838 5841 5845 5850 5854 5856 5859 5859 5859 5859 5860 5862 5864 5866 5867 5870 5871 5870 5872 5874 5874 5876 5879 5883 5886 5888 5889 5891 5893 5894 5893 5894 5895 5896 5898 5899 5899 5899 5900 5901 5901 5902 5903 5904 5906 5908 5910 5912 5914 5915 5917 5919 5921 5922 5924 5925 5927 5929 5930 5932 5933 5934 5935 5937 5938 5940 5941 5943 5943 5944 5945 5946 5946 5947 5948 5948
5814 5817 5816 5817 5820 5823 5825 5828 5832 5833 5835 5840 5845 5848 5849 5852 5855 5857 5857 5856 5857 5859 5861 5863 5866 5869 5868 5869 5871 5871 5871 5872 5875 5880 5885 5886 5887 5890 5892 5893 5893 5893 5893 5895 5896 5898 5898 5898 5899 5900 5901 5901 5902 5904 5906 5908 5910 5912 5914 5915 5917 5919 5921 5922 5924 5925 5927 5928 5929 5931 5932 5934 5936 5937 5939 5940 5941 5942 5943 5944 5945 5946 5947 5947 5948 5948
5812 5812 5812 5815 5816 5819 5823 5828 5831 5831 5833 5839 5842 5843 5845 5848 5851 5855 5855 5854 5856 5856 5855 5858 5863 5865 5865 5867 5871 5870 5868 5869 5872 5878 5882 5884 5886 5888 5890 5891 5891 5891 5892 5893 5895 5896 5897 5897 5898 5899 5900 5900 5902 5904 5905 5907 5909 5911 5913 5915 5917 5919 5920 5922 5923 5925 5926 5928 5929 5930 5932 5934 5936 5938 5939 5940 5941 5942 5943 5944 5945 5946 5947 5948 5948 5949
5805 5807 5808 5809 5811 5816 5821 5825 5826 5826 5830 5836 5838 5838 5842 5844 5847 5851 5852 5853 5854 5851 5849 5853 5857 5860 5861 5864 5867 5867 5866 5868 5871 5876 5880 5882 5884 5885 5888 5889 5889 5889 5889 5891 5892 5894 5895 5896 5896 5898 5899 5900 5901 5903 5904 5906 5908 5910 5912 5914 5916 5919 5920 5922 5923 5924 5926 5927 5929 5930 5932 5934 5936 5938 5939 5940 5941 5942 5943 5944 5945 5946 5947 5948 5948 5949
5797 5800 5800 5802 5807 5812 5816 5819 5821 5822 5827 5831 5832 5834 5837 5839 5843 5845 5847 5851 5849 5844 5846 5850 5853 5856 5857 5859 5862 5863 5865 5868 5871 5874 5877 5879 5881 5882 5885 5886 5886 5886 5887 5889 5890 5892 5893 5894 5895 5897 5898 5899 5900 5902 5904 5905 5907 5909 5911 5913 5915 5918 5920 5921 5923 5924 5926 5927 5929 5930 5932 5934 5936 5937 5938 5939 5940 5941 5943 5944 5945 5946 5947 5948 5949 5949
5787 5790 5792 5797 5802 5806 5809 5812 5816 5818 5821 5825 5826 5829 5831 5834 5837 5839 5841 5844 5840 5838 5845 5849 5850 5851 5851 5854 5858 5861 5864 5867 5868 5871 5874 5876 5877 5879 5882 5884 5884 5884 5885 5887 5889 5890 5891 5893 5895 5896 5897 5898 5899 5901 5903 5905 5906 5908 5910 5912 5914 5916 5919 5921 5922 5924 5925 5927 5928 5930 5932 5934 5935 5936 5937 5938 5940 5941 5942 5944 5945 5946 5947 5948 5949 5949
5777 5784 5788 5792 5796 5800 5803 5807 5810 5811 5814 5818 5820 5822 5824 5828 5830 5831 5833 5834 5831 5835 5844 5848 5849 5847 5846 5851 5856 5859 5862 5864 5865 5868 5870 5872 5874 5876 5878 5880 5882 5882 5883 5885 5887 5888 5890 5892 5894 5895 5896 5897 5898 5899 5901 5904 5905 5907 5908 5910 5913 5915 5917 5920 5922 5923 5925 5926 5928 5929 5931 5933 5934 5935 5936 5937 5939 5940 5941 5943 5944 5945 5946 5947 5948 5948
5773 5779 5782 5786 5791 5794 5797 5800 5803 5805 5808 5812 5814 5816 5818 5821 5823 5824 5827 5828 5828 5835 5843 5847 5846 5843 5843 5849 5854 5856 5860 5862 5863 5864 5866 5868 5870 5872 5875 5877 5879 5880 5881 5883 5885 5887 5888 5890 5892 5893 5895 5896 5897 5898 5899 5902 5904 5906 5908 5909 5911 5913 5915 5918 5920 5922 5924 5925 5927 5928 5930 5932 5933 5934 5935 5936 5938 5939 5940 5942 5943 5944 5945 5946 5947 5948
5765 5770 5776 5782 5785 5788 5790 5794 5799 5803 5805 5809 5813 5815 5817 5819 5821 5823 5826 5827 5829 5836 5843 5844 5840 5837 5840 5847 5853 5856 5858 5859 5861 5861 5862 5865 5868 5870 5872 5874 5877 5878 5880 5882 5883 5885 5887 5888 5890 5892 5893 5894 5895 5897 5898 5900 5903 5905 5907 5909 5910 5912 5914 5916 5918 5921 5923 5924 5926 5927 5929 5930 5931 5933 5934 5935 5937 5938 5939 5940 5942 5943 5944 5945 5946 5947
5754 5763 5774 5777 5778 5783 5787 5792 5797 5800 5802 5807 5811 5813 5814 5818 5822 5825 5827 5829 5831 5835 5839 5839 5834 5834 5840 5845 5850 5854 5856 5857 5859 5859 5860 5862 5865 5868 5870 5872 5875 5877 5878 5880 5881 5883 5885 5886 5889 5890 5892 5893 5894 5895 5897 5899 5901 5903 5905 5907 5909 5911 5913 5915 5917 5919 5921 5922 5924 5926 5927 5928 5930 5931 5933 5934 5936 5937 5938 5939 5940 5942 5943 5944 5945 5946
5745 5755 5765 5768 5772 5779 5785 5789 5793 5795 5799 5803 5806 5808 5812 5817 5820 5823 5826 5829 5831 5832 5833 5835 5832 5833 5839 5842 5845 5850 5852 5854 5856 5857 5858 5860 5863 5866 5868 5871 5874 5876 5877 5878 5879 5881 5883 5885 5887 5889 5891 5892 5893 5894 5895 5897 5899 5901 5904 5906 5908 5910 5911 5913 5915 5918 5919 5921 5923 5924 5926 5927 5928 5930 5931 5933 5934 5935 5937 5938 5939 5941 5942 5943 5944 5945
5739 5748 5756 5761 5767 5775 5781 5786 5788 5791 5795 5799 5802 5806 5811 5815 5816 5819 5822 5824 5825 5825 5828 5831 5831 5832 5836 5839 5842 5846 5848 5851 5853 5854 5855 5857 5859 5862 5866 5869 5872 5874 5875 5876 5877 5878 5880 5883 5885 5887 5889 5890 5891 5892 5893 5895 5897 5899 5902 5904 5907 5909 5911 5913 5914 5916 5918 5920 5922 5923 5924 5925 5926 5928 5929 5931 5933 5934 5936 5937 5938 5940 5941 5942 5943 5944
5733 5742 5749 5756 5763 5771 5776 5779 5781 5785 5790 5795 5800 5804 5807 5809 5810 5813 5815 5817 5818 5820 5823 5827 5829 5831 5832 5835 5840 5843 5844 5847 5850 5850 5851 5853 5855 5858 5862 5866 5869 5871 5872 5874 5875 5876 5878 5881 5883 5885 5887 5888 5890 5891 5892 5894 5896 5898 5900 5903 5906 5908 5909 5911 5913 5915 5917 5919 5921 5922 5923 5924 5924 5926 5927 5929 5931 5933 5934 5936 5937 5939 5940 5941 5942 5943
5727 5734 5742 5751 5758 5763 5767 5770 5773 5778 5785 5790 5794 5797 5801 5804 5806 5809 5811 5813 5815 5817 5821 5824 5825 5827 5830 5834 5838 5840 5842 5845 5847 5847 5847 5849 5852 5855 5859 5863 5866 5868 5870 5872 5873 5875 5877 5879 5881 5884 5885 5887 5888 5890 5891 5893 5895 5897 5899 5901 5904 5906 5907 5909 5911 5914 5916 5918 5920 5921 5922 5923 5924 5925 5926 5928 5929 5930 5932 5934 5936 5938 5939 5940 5941 5942
5722 5726 5736 5746 5750 5752 5756 5762 5769 5776 5780 5782 5784 5788 5793 5796 5800 5806 5808 5810 5812 5814 5817 5820 5821 5824 5830 5834 5835 5837 5839 5841 5843 5844 5845 5846 5849 5852 5856 5861 5864 5865 5867 5869 5871 5873 5875 5877 5880 5882 5883 5885 5887 5888 5890 5892 5893 5895 5897 5900 5902 5904 5906 5908 5910 5913 5915 5917 5919 5920 5921 5922 5923 5924 5925 5926 5927 5929 5930 5932 5934 5936 5938 5939 5940 5941
5714 5719 5731 5740 5741 5744 5751 5760 5770 5776 5778 5780 5781 5784 5789 5792 5796 5799 5801 5804 5808 5810 5814 5817 5819 5823 5828 5831 5832 5834 5836 5837 5839 5841 5842 5844 5847 5849 5854 5859 5861 5863 5865 5867 5869 5871 5873 5875 5878 5880 5881 5883 5885 5887 5889 5890 5892 5894 5896 5898 5900 5902 5905 5907 5909 5911 5913 5915 5918 5919 5920 5921 5922 5923 5924 5926 5926 5927 5929 5931 5933 5935 5936 5938 5939 5940
5707 5715 5725 5733 5736 5742 5750 5757 5766 5773 5777 5779 5781 5785 5788 5790 5793 5795 5797 5802 5806 5808 5813 5816 5817 5822 5825 5827 5829 5831 5833 5834 5836 5838 5840 5842 5844 5848 5852 5856 5858 5860 5862 5865 5867 5869 5871 5873 5876 5878 5880 5882 5884 5885 5887 5888 5890 5892 5893 5896 5898 5901 5903 5905 5907 5909 5911 5914 5916 5918 5919 5920 5921 5922 5923 5925 5925 5927 5928 5929 5931 5933 5935 5936 5938 5939
5704 5712 5721 5729 5735 5742 5750 5753 5756 5764 5772 5775 5777 5781 5784 5787 5791 5795 5799 5803 5806 5807 5811 5813 5814 5819 5822 5823 5826 5829 5830 5832 5833 5835 5837 5839 5842 5846 5850 5852 5855 5857 5860 5862 5864 5867 5869 5871 5873 5876 5878 5880 5882 5884 5885 5887 5889 5890 5892 5894 5896 5899 5901 5903 5905 5907 5910 5912 5914 5916 5918 5919 5921 5922 5923 5924 5925 5926 5927 5928 5930 5932 5933 5935 5936 5937
5699 5706 5714 5724 5731 5738 5745 5748 5750 5755 5762 5768 5772 5776 5780 5784 5789 5793 5797 5800 5802 5804 5808 5810 5811 5817 5820 5821 5823 5826 5827 5829 5830 5832 5834 5836 5840 5844 5847 5850 5852 5855 5857 5859 5862 5864 5867 5869 5871 5874 5877 5879 5881 5882 5884 5886 5888 5889 5891 5893 5895 5897 5899 5902 5904 5906 5908 5911 5913 5915 5917 5918 5920 5921 5922 5923 5924 5925 5926 5927 5929 5930 5932 5933 5934 5935
5692 5700 5709 5718 5725 5731 5737 5742 5746 5750 5755 5762 5768 5772 5776 5780 5783 5788 5792 5794 5796 5800 5804 5806 5809 5815 5818 5818 5821 5824 5825 5827 5829 5830 5832 5835 5838 5842 5845 5848 5850 5853 5855 5858 5860 5862 5865 5867 5870 5873 5875 5877 5879 5881 5883 5885 5886 5888 5890 5892 5894 5896 5898 5900 5902 5904 5906 5909 5912 5914 5915 5917 5918 5920 5921 5922 5923 5924 5925 5926 5927 5928 5930 5931 5932 5933
5688 5696 5703 5711 5719 5725 5731 5737 5741 5745 5748 5755 5761 5767 5772 5776 5779 5784 5787 5789 5794 5798 5801 5803 5808 5814 5815 5816 5820 5822 5823 5825 5827 5829 5831 5833 5836 5839 5843 5845 5848 5851 5853 5856 5858 5861 5863 5866 5868 5871 5874 5876 5877 5879 5881 5883 5885 5887 5889 5891 5893 5895 5897 5899 5901 5903 5905 5907 5910 5912 5914 5915 5917 5918 5919 5921 5922 5923 5924 5925 5926 5927 5928 5929 5930 5931
5685 5691 5696 5704 5713 5720 5728 5734 5737 5740 5744 5749 5755 5762 5768 5772 5777 5780 5783 5787 5792 5796 5798 5803 5808 5811 5812 5814 5818 5820 5822 5824 5825 5827 5830 5832 5834 5837 5841 5844 5846 5849 5851 5853 5856 5859 5861 5864 5866 5869 5872 5874 5876 5878 5880 5882 5883 5885 5888 5889 5891 5894 5896 5898 5900 5902 5904 5906 5908 5910 5912 5914 5915 5917 5918 5919 5920 5921 5922 5923 5924 5925 5925 5927 5928 5929
5680 5684 5691 5702 5711 5719 5726 5731 5734 5738 5743 5745 5748 5756 5763 5769 5773 5776 5780 5785 5790 5793 5797 5802 5806 5808 5810 5813 5816 5818 5820 5822 5824 5826 5829 5831 5834 5836 5839 5842 5844 5846 5848 5851 5854 5857 5859 5862 5865 5868 5870 5872 5874 5876 5878 5880 5882 5884 5886 5888 5890 5892 5894 5896 5898 5900 5902 5904 5906 5908 5910 5912 5914 5916 5917 5918 5919 5920 5920 5921 5922 5923 5924 5925 5926 5927
5675 5681 5689 5700 5710 5718 5724 5727 5730 5734 5739 5743 5747 5754 5761 5766 5771 5775 5779 5784 5787 5791 5796 5800 5803 5807 5809 5811 5813 5815 5817 5819 5821 5824 5827 5830 5833 5835 5837 5840 5842 5845 5847 5849 5852 5855 5857 5860 5863 5866 5868 5870 5872 5874 5876 5878 5881 5883 5885 5887 5889 5891 5893 5895 5897 5899 5900 5902 5904 5906 5908 5911 5913 5915 5916 5917 5917 5918 5919 5919 5920 5921 5922 5923 5924 5925
5672 5678 5688 5699 5708 5715 5719 5722 5726 5730 5735 5741 5748 5754 5761 5766 5769 5774 5778 5782 5786 5790 5794 5797 5800 5804 5806 5808 5810 5811 5813 5816 5818 5820 5823 5827 5830 5833 5836 5838 5840 5843 5846 5848 5851 5854 5856 5858 5861 5863 5866 5868 5870 5873 5875 5877 5879 5881 5884 5886 5888 5890 5892 5894 5895 5897 5899 5900 5901 5903 5906 5909 5911 5913 5914 5915 5915 5915 5916 5917 5918 5919 5920 5921 5922 5923
5670 5677 5687 5697 5704 5709 5715 5720 5724 5729 5734 5740 5746 5752 5759 5764 5767 5772 5777 5781 5784 5788 5791 5795 5797 5800 5802 5805 5806 5807 5809 5813 5816 5819 5821 5824 5828 5831 5834 5836 5839 5842 5844 5846 5849 5852 5855 5857 5859 5862 5865 5867 5869 5872 5874 5876 5877 5880 5882 5885 5887 5889 5890 5892 5894 5895 5897 5898 5900 5902 5904 5907 5909 5911 5912 5912 5913 5913 5914 5914 5916 5917 5918 5919 5920 5921
5669 5676 5684 5694 5700 5705 5711 5716 5720 5726 5731 5736 5741 5745 5751 5757 5763 5769 5773 5775 5779 5784 5789 5792 5795 5798 5800 5801 5802 5803 5806 5810 5814 5817 5819 5822 5825 5829 5832 5834 5837 5840 5843 5846 5848 5851 5854 5856 5859 5861 5863 5865 5868 5870 5872 5874 5876 5879 5881 5883 5885 5887 5889 5890 5892 5894 5895 5897 5899 5901 5903 5905 5907 5908 5909 5910 5910 5910 5911 5912 5914 5915 5916 5917 5918 5919
5668 5674 5682 5690 5696 5701 5708 5713 5717 5722 5726 5730 5736 5740 5744 5750 5757 5761 5764 5769 5776 5782 5786 5790 5793 5795 5796 5797 5798 5800 5802 5807 5810 5813 5816 5820 5824 5827 5829 5832 5834 5837 5841 5843 5846 5849 5851 5854 5856 5858 5860 5863 5865 5867 5869 5872 5874 5877 5879 5881 5883 5885 5887 5889 5891 5893 5894 5896 5898 5900 5901 5903 5905 5906 5907 5907 5907 5908 5909 5910 5911 5912 5914 5914 5916 5917
5665 5672 5680 5686 5692 5698 5705 5710 5712 5715 5720 5726 5731 5734 5739 5746 5751 5756 5762 5769 5775 5779 5783 5786 5788 5789 5791 5793 5795 5798 5800 5803 5807 5811 5814 5818 5821 5824 5827 5829 5832 5834 5837 5840 5843 5845 5848 5851 5853 5855 5858 5860 5862 5864 5866 5869 5872 5874 5876 5879 5881 5883 5886 5888 5890 5891 5893 5895 5896 5898 5900 5901 5902 5903 5904 5904 5905 5906 5907 5908 5909 5910 5911 5912 5913 5915
5662 5670 5677 5682 5688 5695 5701 5704 5707 5710 5715 5721 5725 5730 5736 5743 5749 5755 5762 5767 5771 5774 5778 5780 5781 5784 5787 5790 5793 5795 5797 5801 5805 5809 5812 5816 5819 5821 5824 5827 5829 5832 5834 5837 5840 5842 5845 5848 5850 5852 5854 5857 5859 5861 5864 5867 5869 5871 5874 5877 5879 5881 5884 5885 5887 5890 5891 5893 5895 5896 5898 5899 5900 5900 5901 5901 5902 5903 5904 5905 5906 5907 5908 5909 5911 5912
5659 5666 5674 5679 5684 5689 5696 5700 5705 5709 5712 5715 5720 5726 5734 5740 5746 5751 5758 5764 5768 5771 5773 5774 5776 5779 5783 5786 5790 5793 5795 5798 5803 5807 5810 5813 5815 5817 5821 5824 5827 5829 5832 5834 5836 5839 5842 5845 5847 5850 5852 5854 5857 5859 5862 5865 5867 5869 5871 5874 5876 5879 5881 5883 5885 5887 5889 5891 5892 5894 5895 5896 5896 5897 5898 5898 5899 5900 5901 5902 5903 5904 5905 5906 5908 5909
5654 5661 5669 5675 5679 5684 5691 5696 5701 5706 5708 5711 5716 5722 5729 5736 5741 5746 5753 5759 5765 5768 5769 5771 5773 5776 5779 5782 5786 5790 5793 5797 5801 5804 5807 5810 5812 5815 5818 5821 5824 5827 5829 5831 5833 5836 5839 5842 5844 5847 5849 5852 5854 5857 5859 5862 5865 5867 5870 5872 5874 5877 5878 5880 5882 5884 5886 5888 5889 5891 5892 5893 5893 5894 5895 5895 5897 5897 5898 5898 5899 5900 5902 5903 5905 5906
5651 5659 5666 5672 5674 5680 5688 5691 5695 5701 5704 5707 5713 5720 5726 5732 5738 5744 5751 5755 5759 5763 5766 5768 5771 5775 5778 5781 5784 5787 5791 5794 5797 5800 5803 5806 5809 5812 5815 5818 5821 5824 5827 5829 5831 5834 5837 5839 5841 5844 5846 5849 5852 5854 5857 5859 5862 5864 5867 5869 5872 5874 5876 5878 5880 5881 5883 5885 5886 5888 5889 5890 5891 5891 5892 5893 5893 5894 5895 5895 5896 5897 5898 5900 5902 5903
5648 5656 5664 5669 5672 5677 5684 5688 5692 5698 5701 5704 5710 5717 5722 5728 5736 5743 5747 5749 5753 5758 5762 5765 5768 5772 5776 5778 5781 5784 5787 5791 5794 5796 5799 5803 5806 5809 5813 5816 5819 5822 5825 5827 5829 5832 5834 5836 5839 5841 5844 5846 5849 5851 5854 5856 5858 5861 5863 5865 5868 5870 5873 5875 5876 5878 5879 5881 5883 5884 5886 5887 5888 5889 5890 5890 5890 5891 5891 5892 5893 5894 5895 5897 5899 5900
5643 5650 5658 5664 5668 5673 5678 5683 5689 5695 5698 5701 5706 5712 5717 5724 5732 5738 5741 5743 5747 5752 5757 5760 5764 5769 5773 5775 5777 5780 5784 5787 5791 5794 5797 5801 5805 5808 5811 5815 5817 5820 5823 5826 5828 5830 5832 5834 5836 5839 5841 5843 5845 5848 5850 5852 5854 5857 5859 5861 5864 5866 5868 5870 5872 5874 5876 5878 5880 5881 5883 5885 5886 5887 5888 5888 5888 5888 5889 5889 5890 5891 5893 5894 5896 5897
5640 5646 5652 5659 5665 5669 5674 5680 5686 5692 5697 5699 5702 5707 5713 5719 5724 5730 5735 5738 5740 5745 5751 5756 5760 5765 5769 5772 5774 5778 5782 5785 5789 5792 5796 5799 5803 5806 5809 5812 5815 5817 5820 5824 5826 5827 5829 5832 5834 5836 5839 5841 5843 5844 5846 5848 5850 5853 5855 5857 5859 5862 5864 5866 5868 5870 5873 5875 5876 5878 5880 5882 5883 5884 5885 5886 5886 5886 5886 5887 5888 5889 5890 5891 5893 5894
5638 5644 5650 5657 5663 5668 5673 5679 5685 5689 5694 5696 5698 5702 5708 5713 5717 5724 5731 5735 5737 5741 5746 5751 5756 5761 5765 5767 5770 5775 5779 5783 5786 5789 5793 5796 5800 5803 5806 5809 5811 5814 5817 5820 5823 5824 5827 5829 5831 5833 5835 5837 5839 5841 5843 5845 5847 5849 5851 5854 5856 5858 5860 5862 5864 5867 5869 5871 5873 5874 5876 5878 5880 5881 5882 5883 5884 5884 5884 5885 5885 5886 5887 5888 5890 5892
5636 5641 5649 5656 5662 5667 5671 5677 5682 5686 5689 5692 5693 5695 5700 5706 5714 5721 5727 5731 5734 5738 5743 5747 5752 5757 5760 5763 5766 5771 5776 5779 5783 5786 5789 5793 5797 5800 5803 5806 5808 5811 5813 5816 5818 5821 5823 5825 5827 5829 5832 5834 5836 5838 5840 5842 5844 5846 5848 5851 5853 5855 5857 5859 5861 5863 5865 5867 5868 5870 5872 5874 5876 5877 5879 5880 5881 5881 5882 5882 5883 5884 5885 5886 5887 5888
5634 5637 5645 5653 5659 5662 5666 5670 5675 5679 5681 5685 5689 5691 5695 5702 5710 5715 5721 5726 5728 5731 5737 5743 5747 5751 5755 5758 5762 5767 5771 5775 5779 5782 5786 5790 5794 5797 5800 5803 5805 5808 5810 5813 5815 5817 5819 5822 5824 5826 5828 5831 5833 5835 5837 5840 5842 5844 5846 5848 5849 5851 5853 5855 5857 5859 5861 5862 5864 5866 5867 5869 5871 5873 5875 5876 5877 5878 5879 5880 5880 5881 5882 5883 5884 5886
5631 5635 5640 5647 5653 5657 5660 5665 5669 5671 5674 5681 5687 5691 5694 5701 5706 5711 5717 5721 5721 5720 5725 5733 5739 5744 5750 5753 5757 5762 5767 5771 5774 5778 5782 5786 5790 5793 5796 5799 5802 5805 5808 5810 5812 5814 5816 5818 5821 5823 5826 5828 5830 5832 5834 5837 5839 5841 5843 5845 5847 5848 5850 5852 5853 5855 5857 5859 5860 5862 5863 5865 5866 5868 5870 5872 5873 5874 5875 5876 5877 5878 5879 5880 5881 5883
5630 5633 5637 5642 5648 5652 5657 5661 5663 5664 5671 5680 5687 5691 5695 5700 5704 5708 5713 5717 5717 5715 5717 5724 5730 5736 5742 5748 5752 5757 5761 5766 5770 5774 5777 5781 5785 5788 5792 5795 5799 5802 5804 5806 5808 5810 5812 5814 5817 5820 5823 5825 5827 5829 5831 5834 5836 5838 5840 5842 5844 5845 5847 5848 5850 5852 5853 5855 5857 5858 5860 5861 5862 5864 5865 5867 5868 5869 5871 5872 5873 5875 5876 5877 5878 5879
5629 5631 5634 5638 5644 5649 5654 5657 5657 5662 5671 5679 5683 5689 5693 5697 5701 5706 5710 5714 5715 5715 5717 5721 5726 5731 5736 5741 5747 5751 5755 5760 5765 5769 5773 5777 5780 5783 5787 5791 5794 5797 5799 5801 5803 5806 5808 5811 5813 5816 5819 5822 5824 5826 5828 5830 5833 5835 5837 5839 5840 5842 5844 5846 5847 5849 5850 5852 5853 5855 5856 5857 5859 5860 5861 5862 5863 5864 5866 5868 5869 5871 5873 5874 5875 5875
5629 5630 5632 5635 5641 5647 5651 5654 5657 5663 5672 5677 5680 5686 5690 5693 5697 5703 5707 5710 5712 5714 5717 5721 5725 5728 5732 5736 5741 5746 5750 5755 5760 5764 5769 5773 5776 5779 5783 5787 5790 5793 5795 5797 5799 5802 5805 5807 5809 5812 5815 5818 5820 5823 5825 5827 5829 5831 5834 5835 5837 5839 5841 5842 5844 5846 5848 5849 5851 5852 5853 5854 5855 5856 5857 5858 5860 5861 5863 5864 5866 5867 5869 5870 5870 5871
5630 5632 5632 5634 5639 5644 5648 5651 5655 5662 5669 5674 5678 5683 5687 5690 5694 5698 5702 5706 5709 5713 5716 5719 5721 5725 5730 5733 5737 5742 5746 5750 5755 5760 5764 5768 5771 5775 5779 5782 5786 5789 5791 5794 5797 5799 5801 5804 5806 5808 5811 5813 5816 5818 5821 5823 5826 5828 5830 5832 5834 5836 5837 5839 5841 5843 5845 5846 5847 5848 5849 5850 5851 5852 5854 5855 5856 5858 5859 5860 5862 5863 5864 5865 5866 5867
5631 5632 5633 5634 5637 5641 5645 5649 5654 5661 5667 5672 5675 5680 5684 5688 5692 5695 5698 5702 5706 5709 5713 5716 5718 5722 5727 5731 5734 5738 5742 5746 5751 5756 5760 5763 5766 5770 5775 5778 5781 5784 5788 5791 5793 5795 5797 5800 5802 5805 5807 5809 5812 5814 5817 5820 5822 5825 5827 5828 5830 5832 5834 5835 5837 5839 5841 5842 5843 5844 5845 5846 5848 5849 5850 5852 5853 5855 5856 5857 5858 5859 5860 5861 5861 5862